Terug naar catalogus

KUIPER-00027

ActiefCommunicatieLEO
NORAD 63740·PAYLOAD·🇺🇸 United States

Gelanceerd Apr 28, 2025 vanaf Cape Canaveral Space Force Station

Loading…

Volgende Passages (komende 24 uur)

TLE

VersSource: CelesTrak SupGP

Epoch: Sep 15, 2026, 04:54 UTC

1 63740C 25088S   26258.20437500  .00003072  00000+0  40209-3 0  2584
2 63740  51.9017 337.5721 0000454  89.8888 204.6565 14.79928050    19

Volg KUIPER-00027 in realtime met AllMySat

Download on the App Store